User: anonymous   Login
Location: Unspecified
(0.0000°N, 0.0000°E)
Time: 15:25:40
(UTC+02:00)
Language:

SWIFT - Orbit

View from above orbital plane
View from above orbital plane
View from above satellite
View from above satellite

Ground track
Ground track

The orbit data is extracted from the following two-line orbital elements,

1 28485U 04047A   16149.55704066  .00001294  00000-0  61124-4 0  9990
2 28485  20.5571 302.4947 0011713  61.6634 298.4980 15.03140468630244
Epoch (UTC): 28 May 2016 13:22:08
Eccentricity: 0.0011713
inclination: 20.5571°
perigee height: 549 km
apogee height: 565 km
right ascension of ascending node: 302.4947°
argument of perigee: 61.6634°
revolutions per day: 15.03140468
mean anomaly at epoch: 298.4980°
orbit number at epoch: 63024

The dashed part of the orbit path shows where the satellite is in the earth's shadow,  

DLR